Tulsa, OK

7:45 PM CDT on May 25, 2017 (GMT -0500)
Tulsa International

Weather History for KTUL - September, 2013

Change the Weather History Date:

Tuesday, September 10, 2013

  Actual Average Record
Temperature  
Mean Temperature 85 °F 75 °F  
Max Temperature 95 °F 86 °F 105 °F (1936)
Min Temperature 74 °F 65 °F 48 °F (1962)
Degree Days  
Heating Degree Days 0 0  
Month to date heating degree days 0 0  
Since 1 July heating degree days 0 0  
Cooling Degree Days 20 11  
Month to date cooling degree days 172 123  
Year to date cooling degree days 1801 1824  
Growing Degree Days 36 (Base 50)    
Moisture  
Dew Point 63 °F    
Average Humidity 48    
Maximum Humidity 60    
Minimum Humidity 36    
Precipitation  
Precipitation 0.00 in 0.14 in 3.10 in (1999)
Month to date precipitation 0.00 1.38  
Year to date precipitation 23.38 28.86  
Sea Level Pressure  
Sea Level Pressure 30.01 in    
Wind  
Wind Speed 9 mph (South)    
Max Wind Speed 20 mph    
Max Gust Speed 26 mph    
Visibility 10 miles    
Events      
T = Trace of Precipitation, MM = Missing Value Source: NWS Daily Summary

Daily Weather History Graph

Daily Weather History Graph

Search for Another Location

Airport or City:

Trip Planner

Search our weather history database for the weather conditions in past years. The results will help you decide how hot, cold, wet, or windy it might be!

Date:

Astronomy

Sep. 10, 2013 Rise Set
Actual Time 7:02 AM CDT 7:37 PM CDT
Civil Twilight 6:36 AM CDT 8:03 PM CDT
Nautical Twilight 6:05 AM CDT 8:34 PM CDT
Astronomical Twilight 5:34 AM CDT 9:05 PM CDT
Moon 12:18 PM CDT (9/10) 10:52 PM CDT (9/10)
Length of Visible Light 13h 27m
Length of Day
12h 35m
Waxing Crescent, 28% of the Moon is Illuminated
Sep 10
Waxing Crescent
Sep 12
First Quarter
Sep 19
Full
Sep 26
Last Quarter
Oct 4
New

Hourly Weather History & Observations

Time (CDT) Temp. Heat Index Dew Point Humidity Pressure Visibility Wind Dir Wind Speed Gust Speed Precip Events Conditions
12:53 AM 82.0 °F 83.0 °F 62.1 °F 51% 29.94 in 10.0 mi SSE 8.1 mph - N/A   Clear
1:53 AM 81.0 °F 81.9 °F 62.1 °F 52% 29.94 in 10.0 mi South 10.4 mph - N/A   Clear
2:53 AM 80.1 °F 81.5 °F 63.0 °F 56% 29.96 in 10.0 mi SSE 9.2 mph - N/A   Clear
3:53 AM 79.0 °F - 63.0 °F 58% 29.97 in 10.0 mi South 10.4 mph - N/A   Clear
4:53 AM 78.1 °F - 63.0 °F 60% 29.98 in 10.0 mi SSE 8.1 mph - N/A   Partly Cloudy
5:53 AM 78.1 °F - 62.1 °F 58% 29.99 in 10.0 mi South 12.7 mph - N/A   Scattered Clouds
6:53 AM 77.0 °F - 62.1 °F 60% 30.01 in 10.0 mi South 8.1 mph - N/A   Mostly Cloudy
7:53 AM 78.1 °F - 63.0 °F 60% 30.03 in 10.0 mi South 6.9 mph - N/A   Mostly Cloudy
8:53 AM 80.1 °F 81.7 °F 64.0 °F 58% 30.05 in 10.0 mi South 6.9 mph - N/A   Mostly Cloudy
9:53 AM 82.0 °F 83.8 °F 64.9 °F 56% 30.07 in 10.0 mi South 10.4 mph - N/A   Mostly Cloudy
10:53 AM 86.0 °F 88.2 °F 66.0 °F 51% 30.07 in 10.0 mi Variable 6.9 mph - N/A   Mostly Cloudy
11:53 AM 90.0 °F 92.4 °F 66.0 °F 45% 30.07 in 10.0 mi SSW 9.2 mph - N/A   Mostly Cloudy
12:53 PM 91.9 °F 94.1 °F 64.9 °F 41% 30.06 in 10.0 mi South 12.7 mph 20.7 mph N/A   Mostly Cloudy
1:53 PM 91.9 °F 92.9 °F 63.0 °F 38% 30.04 in 10.0 mi South 16.1 mph 24.2 mph N/A   Mostly Cloudy
2:53 PM 93.0 °F 94.6 °F 64.0 °F 38% 30.02 in 10.0 mi South 15.0 mph - N/A   Scattered Clouds
3:53 PM 93.0 °F 94.2 °F 63.0 °F 37% 30.00 in 10.0 mi South 11.5 mph 21.9 mph N/A   Mostly Cloudy
4:53 PM 93.9 °F 94.8 °F 62.1 °F 35% 29.99 in 10.0 mi South 10.4 mph - N/A   Mostly Cloudy
5:53 PM 91.9 °F 91.5 °F 60.1 °F 34% 29.98 in 10.0 mi SSW 12.7 mph - N/A   Mostly Cloudy
6:53 PM 89.1 °F 88.2 °F 59.0 °F 36% 29.99 in 10.0 mi South 12.7 mph - N/A   Mostly Cloudy
7:53 PM 86.0 °F 86.1 °F 61.0 °F 43% 30.00 in 10.0 mi SSE 5.8 mph - N/A   Mostly Cloudy
8:53 PM 81.0 °F 81.9 °F 62.1 °F 52% 30.02 in 10.0 mi SE 3.5 mph - N/A   Mostly Cloudy
9:53 PM 81.0 °F 82.2 °F 63.0 °F 54% 30.04 in 10.0 mi South 3.5 mph - N/A   Mostly Cloudy
10:53 PM 78.1 °F - 63.0 °F 60% 30.05 in 10.0 mi SSE 3.5 mph - N/A   Scattered Clouds
11:53 PM 79.0 °F - 63.0 °F 58% 30.05 in 10.0 mi South 4.6 mph - N/A   Scattered Clouds